Weather History for Crane Lake, MN

Change the Weather History Date:

Wednesday, March 7, 2012

  Actual Average Record
Temperature  
Mean Temperature 25 °F -  
Max Temperature 33 °F 25 °F 37 °F (2006)
Min Temperature 17 °F 3 °F -25 °F (2008)
Degree Days  
Heating Degree Days 40    
Moisture  
Dew Point 23 °F    
Average Humidity 84    
Maximum Humidity 100    
Minimum Humidity 69    
Precipitation  
Precipitation 0.00 in - - ()
Sea Level Pressure  
Sea Level Pressure 29.67 in    
Wind  
Wind Speed 3 mph (NW)    
Max Wind Speed 14 mph    
Max Gust Speed 20 mph    
Visibility 9 miles    
Events Snow    
Averages and records for this station are not official NWS values.
T = Trace of Precipitation, MM = Missing Value Source: NWS Daily Summary

Daily Weather History Graph

Daily Weather History Graph

Search for Another Location

Airport:

Trip Planner

Search our weather history database for the weather conditions in past years. The results will help you decide how hot, cold, wet, or windy it might be!

Date:

Astronomy

Mar. 07, 2012 Rise Set
Actual Time 6:38 AM CST 6:04 PM CST
Civil Twilight 6:07 AM CST 6:35 PM CST
Nautical Twilight 5:31 AM CST 7:11 PM CST
Astronomical Twilight 4:54 AM CST 7:48 PM CST
Moon 5:43 PM CST (3/7) 5:49 AM CST (3/7)
Length of Visible Light 12h 28m
Length of Day
11h 25m
Waxing Gibbous, 99% of the Moon is Illuminated
Mar 7
Waxing Gibbous
Mar 8
Full
Mar 14
Last Quarter
Mar 22
New
Mar 30
First Quarter

Hourly Weather History & Observations

Time (CST) Temp. Windchill Dew Point Humidity Pressure Visibility Wind Dir Wind Speed Gust Speed Precip Events Conditions
12:02 AM 28.4 °F - 26.6 °F 93% 29.57 in 10.0 mi Calm Calm - N/A   Clear
12:42 AM 28.4 °F - 26.6 °F 93% 29.55 in 10.0 mi Calm Calm - N/A   Scattered Clouds
1:02 AM 26.6 °F - 24.8 °F 93% 29.57 in 10.0 mi Calm Calm - N/A   Clear
1:42 AM 32.0 °F - 26.6 °F 80% 29.57 in 10.0 mi Calm Calm - N/A   Clear
2:02 AM 30.2 °F - 26.6 °F 86% 29.57 in 10.0 mi Calm Calm - N/A   Clear
2:22 AM 30.2 °F - 26.6 °F 86% 29.58 in 10.0 mi Calm Calm - N/A   Clear
2:42 AM 30.2 °F - 26.6 °F 86% 29.54 in 10.0 mi Calm Calm - N/A   Clear
3:22 AM 28.4 °F - 26.6 °F 93% 29.55 in 10.0 mi Calm Calm - N/A   Clear
3:42 AM 28.4 °F - 26.6 °F 93% 29.56 in 10.0 mi Calm Calm - N/A   Clear
4:02 AM 28.4 °F - 26.6 °F 93% 29.55 in 10.0 mi Calm Calm - N/A   Clear
4:22 AM 28.4 °F - 26.6 °F 93% 29.54 in 10.0 mi Calm Calm - N/A   Clear
4:42 AM 26.6 °F - 24.8 °F 93% 29.55 in 10.0 mi Calm Calm - N/A   Clear
5:02 AM 26.6 °F - 24.8 °F 93% 29.55 in 10.0 mi Calm Calm - N/A   Clear
5:22 AM 26.6 °F - 24.8 °F 93% 29.55 in 10.0 mi Calm Calm - N/A   Clear
5:42 AM 24.8 °F - 23.0 °F 93% 29.56 in 10.0 mi Calm Calm - N/A   Clear
6:22 AM 24.8 °F - 23.0 °F 93% 29.57 in 10.0 mi Calm Calm - N/A   Clear
6:42 AM 24.8 °F - 24.8 °F 100% 29.57 in 10.0 mi Calm Calm - N/A   Clear
7:02 AM 26.6 °F - 24.8 °F 93% 29.57 in 10.0 mi Calm Calm - N/A   Clear
7:22 AM 26.6 °F - 24.8 °F 93% 29.58 in 10.0 mi Calm Calm - N/A   Clear
7:42 AM 28.4 °F - 26.6 °F 93% 29.59 in 10.0 mi Calm Calm - N/A   Clear
8:02 AM 30.2 °F - 28.4 °F 93% 29.59 in 10.0 mi Calm Calm - N/A   Clear
8:23 AM 32.0 °F 27.5 °F 28.4 °F 87% 29.59 in 10.0 mi NW 4.6 mph - N/A   Clear
8:48 AM 33.8 °F 30.8 °F 28.4 °F 81% 29.58 in 10.0 mi NNW 3.5 mph - N/A   Clear
9:09 AM 33.8 °F 27.0 °F 28.4 °F 81% 29.58 in 10.0 mi NNW 8.1 mph - N/A   Mostly Cloudy
9:22 AM 33.8 °F 27.0 °F 30.2 °F 87% 29.58 in 10.0 mi NNW 8.1 mph - N/A   Overcast
9:42 AM 33.8 °F 28.6 °F 30.2 °F 87% 29.60 in 10.0 mi NNW 5.8 mph - N/A   Overcast
10:03 AM 33.8 °F 29.6 °F 28.4 °F 81% 29.61 in 10.0 mi NW 4.6 mph - N/A   Overcast
10:22 AM 33.8 °F 29.6 °F 28.4 °F 81% 29.61 in 4.0 mi NW 4.6 mph - N/A Snow Light Snow
10:42 AM 32.0 °F 25.6 °F 28.4 °F 87% 29.62 in 7.0 mi NW 6.9 mph - N/A Snow Light Snow
11:02 AM 32.0 °F 24.2 °F 30.2 °F 93% 29.62 in 1.5 mi NW 9.2 mph - N/A Snow Light Snow
11:22 AM 32.0 °F 24.8 °F 28.4 °F 87% 29.62 in 4.0 mi NNW 8.1 mph - N/A Snow Light Snow
11:42 AM 30.2 °F 21.9 °F 28.4 °F 93% 29.63 in 4.0 mi NW 9.2 mph - N/A   Overcast
12:02 PM 30.2 °F 22.6 °F 28.4 °F 93% 29.63 in 10.0 mi NW 8.1 mph - N/A   Overcast
12:22 PM 30.2 °F 21.9 °F 26.6 °F 86% 29.62 in 10.0 mi NNW 9.2 mph - N/A   Mostly Cloudy
12:42 PM 30.2 °F 22.6 °F 26.6 °F 86% 29.63 in 7.0 mi NNW 8.1 mph 16.1 mph N/A Snow Light Snow
1:02 PM 30.2 °F 22.6 °F 26.6 °F 86% 29.64 in 2.0 mi NNW 8.1 mph - N/A Snow Light Snow
1:22 PM 28.4 °F 19.7 °F 26.6 °F 93% 29.65 in 1.0 mi NNW 9.2 mph 16.1 mph N/A Snow Light Snow
1:42 PM 28.4 °F 19.1 °F 26.6 °F 93% 29.66 in 1.5 mi NNW 10.4 mph 17.3 mph N/A Snow Light Snow
2:02 PM 28.4 °F 22.2 °F 24.8 °F 86% 29.66 in 10.0 mi NW 5.8 mph 19.6 mph N/A   Mostly Cloudy
2:22 PM 28.4 °F 17.5 °F 24.8 °F 86% 29.67 in 10.0 mi NW 13.8 mph 19.6 mph N/A   Overcast
2:42 PM 28.4 °F 20.4 °F 24.8 °F 86% 29.68 in 10.0 mi NW 8.1 mph 18.4 mph N/A Snow Light Snow
3:02 PM 28.4 °F 19.1 °F 23.0 °F 80% 29.68 in 10.0 mi NNW 10.4 mph 19.6 mph N/A   Overcast
3:22 PM 28.4 °F 19.1 °F 21.2 °F 74% 29.69 in 10.0 mi NNW 10.4 mph 18.4 mph N/A   Overcast
3:42 PM 26.6 °F 15.7 °F 21.2 °F 80% 29.69 in 10.0 mi NNW 12.7 mph 18.4 mph N/A   Overcast
4:02 PM 26.6 °F 17.5 °F 21.2 °F 80% 29.70 in 10.0 mi NW 9.2 mph 17.3 mph N/A   Overcast
4:42 PM 26.6 °F 16.8 °F 19.4 °F 74% 29.72 in 10.0 mi NW 10.4 mph 17.3 mph N/A   Overcast
5:02 PM 26.6 °F 19.1 °F 19.4 °F 74% 29.72 in 10.0 mi NW 6.9 mph - N/A   Overcast
5:22 PM 26.6 °F 18.2 °F 19.4 °F 74% 29.74 in 10.0 mi NNW 8.1 mph - N/A   Overcast
5:42 PM 26.6 °F 17.5 °F 19.4 °F 74% 29.75 in 10.0 mi NW 9.2 mph - N/A   Overcast
6:22 PM 26.6 °F 19.1 °F 17.6 °F 69% 29.78 in 10.0 mi NW 6.9 mph 18.4 mph N/A   Overcast
6:42 PM 26.6 °F 20.0 °F 17.6 °F 69% 29.78 in 10.0 mi NNW 5.8 mph - N/A   Overcast
7:02 PM 26.6 °F 22.6 °F 17.6 °F 69% 29.79 in 10.0 mi NW 3.5 mph - N/A   Overcast
7:22 PM 24.8 °F 20.5 °F 17.6 °F 74% 29.81 in 10.0 mi NW 3.5 mph - N/A   Mostly Cloudy
7:42 PM 24.8 °F - 15.8 °F 69% 29.83 in 10.0 mi Calm Calm - N/A   Scattered Clouds
8:02 PM 24.8 °F - 15.8 °F 69% 29.84 in 10.0 mi Calm Calm - N/A   Clear
8:22 PM 23.0 °F - 15.8 °F 74% 29.85 in 10.0 mi Calm Calm - N/A   Scattered Clouds
8:42 PM 23.0 °F - 15.8 °F 74% 29.86 in 10.0 mi Calm Calm - N/A   Scattered Clouds
9:02 PM 21.2 °F - 15.8 °F 80% 29.87 in 10.0 mi Calm Calm - N/A   Scattered Clouds
9:22 PM 21.2 °F 16.4 °F 15.8 °F 80% 29.88 in 10.0 mi NW 3.5 mph - N/A   Mostly Cloudy
9:42 PM 21.2 °F 16.4 °F 15.8 °F 80% 29.89 in 10.0 mi NNW 3.5 mph - N/A   Overcast
10:02 PM 21.2 °F 16.4 °F 14.0 °F 74% 29.89 in 10.0 mi NNW 3.5 mph - N/A   Scattered Clouds
10:22 PM 19.4 °F - 14.0 °F 80% 29.90 in 10.0 mi Calm Calm - N/A   Clear
10:42 PM 17.6 °F - 12.2 °F 79% 29.89 in 10.0 mi Calm Calm - N/A   Clear
11:22 PM 19.4 °F - 14.0 °F 80% 29.90 in 10.0 mi Calm Calm - N/A   Overcast
11:42 PM 19.4 °F - 14.0 °F 80% 29.91 in 10.0 mi Calm Calm - N/A   Overcast